Regional Weather Roundup
Issued by NWS Cleveland, OH

Home | Current Version | Previous Version | Graphics & Text | Print | Product List | Glossary On
Versions: 1 2 3 4 5 6 7 8 9 10 11 12 13 14 15 16 17 18 19 20 21 22 23 24 25 26 27 28 29 30 31 32 33 34 35 36 37 38 39 40 41 42 43 44 45 46 47 48 49 50
000
ASUS41 KCLE 310610
RWRCLE
OHIO REGIONAL WEATHER ROUNDUP
NATIONAL WEATHER SERVICE CLEVELAND, OH
200 AM EDT TUE MAY 31 2016

NOTE: "FAIR" INDICATES FEW OR NO CLOUDS BELOW 12,000 FEET WITH NO
SIGNIFICANT WEATHER AND/OR OBSTRUCTIONS TO VISIBILITY.

OHZ001>008-015>018-024>027-034-035-043-044-310700-
   NORTHWEST OHIO

CITY           SKY/WX    TMP DP  RH WIND       PRES   REMARKS
DEFIANCE       CLEAR     65  54  67 CALM      29.99S
FINDLAY        CLEAR     64  53  67 CALM      29.97S
TOLEDO EXPRESS CLEAR     62  54  74 CALM      29.98F
TOLEDO EXEC    PTCLDY    68  52  56 CALM      29.99S
LIMA           CLEAR     65  57  75 CALM      29.99S
$$

OHZ009>014-019>023-028>033-038-089-310700-
   NORTHEAST OHIO

CITY           SKY/WX    TMP DP  RH WIND       PRES   REMARKS
CLE-HOPKINS    PTCLDY    67  55  65 CALM      29.99F
CLE-LAKEFRONT  CLEAR     70  56  61 SE9       29.95F
CUY CO. ARPT   NOT AVBL
LORAIN-ELYRIA  CLEAR     63  58  83 SW3       29.98F
ASHTABULA      CLEAR     59  58  96 CALM      29.98F
AKRON-CANTON   PTCLDY    66  52  60 CALM      29.99F
WOOSTER        CLEAR     59  55  87 CALM      30.00S
MANSFIELD      CLEAR     63  58  83 CALM      29.99F
YOUNGSTOWN     PTCLDY    58  54  86 E6        29.99F
$$

OHZ042-051>053-060>062-070>072-077>081-310700-
  SOUTHWEST OHIO

CITY           SKY/WX    TMP DP  RH WIND       PRES   REMARKS
CINC-COVINGTON MOCLDY    65  59  81 CALM      30.00S
CINC-LUNKEN    PTCLDY    64  63  96 CALM      29.99S
HAMILTON       PTCLDY    66  62  87 CALM      29.99F
DAYTON         PTCLDY    66  56  70 W5        29.99F
WRIGHT-PAT AFB CLEAR     65  63  93 CALM      29.98S
DAYTON GENERAL PTCLDY    71  53  52 CALM      29.98F
WILMINGTON     CLOUDY    66  60  81 SW5       29.99F
$$

OHZ036-037-039>041-045>050-054>059-063>069-073>076-082>088-310700-
  CENTRAL AND SOUTHEAST OHIO

CITY           SKY/WX    TMP DP  RH WIND       PRES   REMARKS
COLUMBUS       PTCLDY    67  59  75 CALM      29.97F
OSU AIRPORT    CLEAR     64  56  75 CALM      29.98S
BOLTON FIELD   CLOUDY    64  61  90 CALM      29.98F
RICKENBACK AFB CLOUDY    65  60  82 CALM      29.97F
NEWARK         CLEAR     60  57  89 CALM      29.98S
MARION         CLEAR     64  58  80 CALM      29.99S
LANCASTER      PTCLDY    60  58  92 CALM      29.98F
ZANESVILLE     CLEAR     63  59  87 CALM      29.98F
NEW PHILLY     CLEAR     64  59  83 CALM      29.99F
$$




USA.gov is the U.S. government's official web portal to all federal, state and local government web resources and services.